COSMOS 2457 (733)

Last updated on Wed Oct 29 2025 00:03:19 GMT+0000 (Coordinated Universal Time)

1 36112U 09070B 25301.10461420 .00000040 00000+0 00000+0 0 9990 2 36112 64.8600 78.7462 0005836 144.4084 34.6745 2.13101026123483
UTC large
Height (km)
Speed (km/s)
/
Latitude / Longitude
Inclination (degrees)
Orbital Period (minutes)
Azimuth
Elevation
Range (km)
Doppler Factor

Next 0 passes for location: London (51.5072 / 0.1276)

Sorry there are no passes over London.